Regional Weather Roundup
Issued by NWS

Home | Current Version | Previous Version | Graphics & Text | Print | Product List | Glossary On
Versions: 1 2 3 4 5 6 7 8 9 10 11 12 13 14 15 16 17 18 19 20 21 22 23 24 25 26 27 28 29 30 31 32 33 34 35 36 37 38 39 40 41 42 43 44 45 46 47 48 49 50
051
ASUS43 KOAX 100902
RWRNE

WEATHER ROUNDUP FOR NEBRASKA
NATIONAL WEATHER SERVICE OMAHA NE
300 AM CST WED FEB 10 2016

NOTES: SATELLITE DATA IS BEING USED TO AUGMENT CLOUD COVER ABOVE
       12000 FEET.
       "FAIR" INDICATES FEW OR NO CLOUDS BELOW 12,000 FEET WITH NO
       SIGNIFICANT WEATHER AND/OR OBSTRUCTIONS TO VISIBILITY.

  * THESE STATIONS DO NOT REPORT WEATHER SUCH AS RAIN...SNOW OR FOG.

NEZ001>004-019>022-054>056-101000-
NEBRASKA PANHANDLE

CITY           SKY/WX    TMP DP  RH WIND       PRES   REMARKS
SCOTTSBLUFF    CLOUDY    31  24  75 N3        30.09F
ALLIANCE       CLEAR     32  24  72 W17       30.04F WCI  21
CHADRON        CLEAR     31  25  78 SW9       30.03F WCI  23
KIMBALL        CLOUDY    33  23  65 W16       30.12F WCI  23
SIDNEY         CLOUDY    36  24  62 W16       30.11F WCI  26
$$

NEZ057>060-069>072-079>082-101000-
SOUTHWEST NEBRASKA

CITY           SKY/WX    TMP DP  RH WIND       PRES   REMARKS
NORTH PLATTE   CLOUDY    22  20  92 NW8       30.04F WCI  12
IMPERIAL       CLEAR     36  25  64 W13       30.08F WCI  27
LEXINGTON      CLOUDY    26  22  85 W6        30.05F WCI  20
MCCOOK         CLEAR     30  26  85 W14       30.07F WCI  19
$$

NEZ005>010-023>029-035>040-094-101000-
NORTH CENTRAL NEBRASKA

CITY           SKY/WX    TMP DP  RH WIND       PRES   REMARKS
VALENTINE      CLEAR     28  26  92 SW9       29.95F WCI  19
AINSWORTH      CLEAR     28  25  87 S3        29.96F
BROKEN BOW     CLEAR     30  26  85 W6        30.00F WCI  24
ORD            PTCLDY    26  23  88 E3        29.99F
$$

NEZ041-046>049-061>064-073>077-083>087-101000-
SOUTH CENTRAL NEBRASKA

CITY           SKY/WX    TMP DP  RH WIND       PRES   REMARKS
GRAND ISLAND   CLOUDY    28  23  81 S9        30.02F WCI  19
AURORA         CLOUDY    26  21  81 S8        30.04F WCI  18
HASTINGS       CLOUDY    29  22  75 S9        30.05F WCI  20
HEBRON         CLOUDY    28  19  70 S7        30.12F WCI  20
YORK           CLOUDY    27  19  74 SW14      30.07F WCI  15
$$

NEZ011>018-030>034-042>045-101000-
NORTHEAST NEBRASKA

CITY           SKY/WX    TMP DP  RH WIND       PRES   REMARKS
NORFOLK        CLOUDY    27  19  72 S9        30.03F WCI  18
ALBION         CLOUDY    26  20  79 CALM      30.02F
BLAIR          CLOUDY    22  16  78 S6        30.10F WCI  15
COLUMBUS *     CLOUDY    27  12  54 S10       30.05F WCI  17
FREMONT        CLOUDY    22  15  74 CALM      30.11F
$$

NEZ050>053-065>068-078-088>093-101000-
SOUTHEAST NEBRASKA

CITY           SKY/WX    TMP DP  RH WIND       PRES   REMARKS
LINCOLN        CLOUDY    26  17  68 SW10      30.12F WCI  16
OMAHA EPPLEY   CLOUDY    22  17  81 SE8       30.13F WCI  12
BEATRICE       CLOUDY    26  17  66 SW10      30.14F WCI  17
FALLS CITY     CLOUDY    21  14  74 SE5       30.18F WCI  15
NEBRASKA CITY  CLOUDY    22  17  83 S5        30.16S WCI  15
$$

NEZ044-045-051>053-067-101000-
OMAHA AREA

CITY           SKY/WX    TMP DP  RH WIND       PRES   REMARKS
OMAHA EPPLEY   CLOUDY    22  17  81 SE8       30.13F WCI  12
BLAIR          CLOUDY    22  16  78 S6        30.10F WCI  15
FREMONT        CLOUDY    22  15  74 CALM      30.11F
OFFUTT AFB     CLOUDY    22  18  84 S5        30.12F WCI  15
WAHOO          CLOUDY    22  17  83 S8        30.07F WCI  12
$$




USA.gov is the U.S. government's official web portal to all federal, state and local government web resources and services.